DL7GAI-7 Weather Reports


time (UTC)temp
C
wind
direction
speed
KPH
gust
KPH
rain 1hr
cm
rain 24hr
cm
rain mn
cm
humidity
%
barometer
mb
20260902140602 24 270 8.0 19.3 0.00 0.00 0.00 48 1019.3
20260902135217 24 270 8.0 19.3 0.00 0.00 0.00 48 1019.3
20260902133932 24 270 8.0 19.3 0.00 0.00 0.00 48 1019.3
20260902132706 23 270 9.7 19.3 0.00 0.00 0.00 51 1019.5
20260902131312 23 270 9.7 19.3 0.00 0.00 0.00 51 1019.5
20260902125912 23 270 6.4 14.5 0.00 0.00 0.00 52 1019.7
20260902124632 23 270 6.4 14.5 0.00 0.00 0.00 52 1019.7
20260902123342 23 270 6.4 12.9 0.00 0.00 0.00 54 1020.3
20260902121912 23 270 6.4 12.9 0.00 0.00 0.00 54 1020.3
20260902120544 22 315 4.8 14.5 0.00 0.00 0.00 57 1020.7
20260902115154 22 315 4.8 14.5 0.00 0.00 0.00 57 1020.7
20260902113907 22 315 4.8 14.5 0.00 0.00 0.00 57 1020.7
20260902112504 21 270 4.8 14.5 0.00 0.00 0.00 59 1021.1
20260902111038 21 270 4.8 14.5 0.00 0.00 0.00 59 1021.1
20260902105727 20 270 6.4 11.3 0.00 0.00 0.00 61 1021.4
20260902104442 20 270 6.4 11.3 0.00 0.00 0.00 61 1021.4
20260902103147 19 270 6.4 11.3 0.00 0.00 0.00 66 1021.4
20260902101930 19 270 6.4 11.3 0.00 0.00 0.00 66 1021.4
20260902100542 20 315 3.2 8.0 0.00 0.00 0.00 63 1021.4
20260902095117 20 315 3.2 8.0 0.00 0.00 0.00 63 1021.4
20260902093817 20 315 3.2 8.0 0.00 0.00 0.00 63 1021.4
20260902092510 18 90 3.2 4.8 0.00 0.00 0.00 69 1021.4
20260902091157 18 90 3.2 4.8 0.00 0.00 0.00 69 1021.4
20260902085932 17 270 1.6 6.4 0.00 0.00 0.00 71 1021.5
20260902084637 17 270 1.6 6.4 0.00 0.00 0.00 71 1021.5
20260902083332 17 0 0.0 4.8 0.00 0.00 0.00 71 1021.5
20260902081912 17 0 0.0 4.8 0.00 0.00 0.00 71 1021.5
20260902080602 16 180 1.6 3.2 0.00 0.00 0.00 76 1021.8
20260902075111 16 180 1.6 3.2 0.00 0.00 0.00 76 1021.8
20260902073747 16 180 1.6 3.2 0.00 0.00 0.00 76 1021.8
20260902072332 14 0 1.6 3.2 0.00 0.00 0.00 85 1022.2
20260902071042 14 0 1.6 3.2 0.00 0.00 0.00 85 1022.2
20260902065812 12 90 3.2 6.4 0.00 0.00 0.00 89 1022.1
20260902064427 12 90 3.2 6.4 0.00 0.00 0.00 89 1022.1
20260902062942 12 0 3.2 6.4 0.00 0.00 0.00 92 1022.2
20260902061632 12 0 3.2 6.4 0.00 0.00 0.00 92 1022.2
20260902060217 11 0 4.8 9.7 0.00 0.00 0.00 93 1022.2
20260902054927 11 0 4.8 9.7 0.00 0.00 0.00 93 1022.2
20260902053537 12 315 6.4 9.7 0.00 0.00 0.00 88 1021.8
20260902052137 12 315 6.4 9.7 0.00 0.00 0.00 88 1021.8
20260902050812 12 315 6.4 9.7 0.00 0.00 0.00 88 1021.8
20260902045427 12 0 6.4 8.0 0.00 0.00 0.00 89 1021.9
20260902044145 12 0 6.4 8.0 0.00 0.00 0.00 89 1021.9
20260902042834 11 0 3.2 6.4 0.00 0.00 0.00 94 1022.0
20260902041530 11 0 3.2 6.4 0.00 0.00 0.00 94 1022.0
20260902040157 11 315 4.8 6.4 0.00 0.00 0.00 94 1022.1
20260902034752 11 315 4.8 6.4 0.00 0.00 0.00 94 1022.1
20260902033512 0 0 0.0 0.0 0.00 0.00 0.00 1
20260902032042 0 0 0.0 0.0 0.00 0.00 0.00 1
20260902030612 0 0 0.0 0.0 0.00 0.00 0.00 1
20260902025222 12 0 4.8 8.0 0.00 0.00 0.00 90 1022.0
20260902023812 12 0 4.8 8.0 0.00 0.00 0.00 90 1022.0
20260902022510 13 315 6.4 8.0 0.00 0.00 0.00 90 1022.0
20260902021227 13 315 6.4 8.0 0.00 0.00 0.00 90 1022.0
20260902015942 13 315 6.4 8.0 0.00 0.00 0.00 89 1021.9
20260902013207 12 0 6.4 8.0 0.00 0.00 0.00 89 1022.0
20260902011847 12 0 6.4 8.0 0.00 0.00 0.00 89 1022.0
20260902010542 13 315 4.8 9.7 0.00 0.00 0.00 88 1022.0
20260902005154 13 315 4.8 9.7 0.00 0.00 0.00 88 1022.0
20260902003807 13 315 4.8 9.7 0.00 0.00 0.00 88 1022.0
20260902002357 13 0 4.8 6.4 0.00 0.00 0.00 88 1022.0
20260902001042 13 0 4.8 6.4 0.00 0.00 0.00 88 1022.0
20260901235822 13 0 3.2 6.4 0.00 0.00 0.00 87 1022.1
20260901234602 13 0 3.2 6.4 0.00 0.00 0.00 87 1022.1
20260901233302 13 0 3.2 6.4 0.00 0.00 0.00 85 1022.0
20260901231812 13 0 3.2 6.4 0.00 0.00 0.00 85 1022.0
20260901230547 14 45 3.2 9.7 0.00 0.00 0.00 83 1022.0
20260901225232 14 45 3.2 9.7 0.00 0.00 0.00 83 1022.0
20260901223912 14 45 3.2 9.7 0.00 0.00 0.00 83 1022.0
20260901222621 15 0 1.6 9.7 0.00 0.00 0.00 81 1021.7
20260901221202 15 0 1.6 9.7 0.00 0.00 0.00 81 1021.7
20260901215752 15 0 6.4 11.3 0.00 0.00 0.00 81 1021.7
20260901214356 15 0 6.4 11.3 0.00 0.00 0.00 81 1021.7
20260901213002 15 0 9.7 11.3 0.00 0.00 0.00 81 1021.6
20260901211707 15 0 9.7 11.3 0.00 0.00 0.00 81 1021.6
20260901210447 16 45 4.8 8.0 0.00 0.00 0.00 80 1021.3
20260901205032 16 45 4.8 8.0 0.00 0.00 0.00 80 1021.3
20260901203657 16 45 4.8 8.0 0.00 0.00 0.00 80 1021.3
20260901202307 16 0 3.2 4.8 0.00 0.00 0.00 82 1021.3
20260901200932 16 0 3.2 4.8 0.00 0.00 0.00 82 1021.3
20260901195541 17 0 3.2 6.4 0.00 0.00 0.00 75 1020.9
20260901194252 17 0 3.2 6.4 0.00 0.00 0.00 75 1020.9
20260901192933 18 45 3.2 4.8 0.00 0.00 0.00 70 1020.3
20260901191607 18 45 3.2 4.8 0.00 0.00 0.00 70 1020.3
20260901190127 19 45 3.2 6.4 0.00 0.00 0.00 73 1020.1
20260901184649 19 45 3.2 6.4 0.00 0.00 0.00 73 1020.1
20260901183312 22 0 3.2 6.4 0.00 0.00 0.00 58 1019.3
20260901181947 22 0 3.2 6.4 0.00 0.00 0.00 58 1019.3
20260901180536 23 315 3.2 14.5 0.00 0.00 0.00 42 1019.2
20260901175136 23 315 3.2 14.5 0.00 0.00 0.00 42 1019.2
20260901173801 23 315 3.2 14.5 0.00 0.00 0.00 42 1019.2
20260901172316 23 270 6.4 14.5 0.00 0.00 0.00 44 1019.4
20260901170912 23 270 6.4 14.5 0.00 0.00 0.00 44 1019.4
20260901165527 24 270 8.0 17.7 0.00 0.00 0.00 43 1019.3
20260901164236 24 270 8.0 17.7 0.00 0.00 0.00 43 1019.3
20260901162836 24 270 9.7 17.7 0.00 0.00 0.00 42 1019.3
20260901161532 24 270 9.7 17.7 0.00 0.00 0.00 42 1019.3
20260901160207 24 270 9.7 19.3 0.00 0.00 0.00 42 1019.2
20260901154807 24 270 9.7 19.3 0.00 0.00 0.00 42 1019.2
20260901153507 24 270 11.3 19.3 0.00 0.00 0.00 43 1019.2
20260901152120 24 270 11.3 19.3 0.00 0.00 0.00 43 1019.2
20260901150707 24 270 11.3 19.3 0.00 0.00 0.00 43 1019.2
20260901145222 24 270 11.3 25.7 0.00 0.00 0.00 43 1019.5
20260901143847 24 270 11.3 25.7 0.00 0.00 0.00 43 1019.5
20260901142556 24 270 11.3 25.7 0.00 0.00 0.00 44 1019.6
20260901141202 24 270 11.3 25.7 0.00 0.00 0.00 44 1019.6